Ithaca, NY

11:45 PM EST on November 24, 2017 (GMT -0500)
Tompkins County

Weather History for KITH - December, 2012

Change the Weather History Date:

Tuesday, December 25, 2012

  Actual Average Record
Temperature  
Mean Temperature 26 °F -  
Max Temperature 29 °F 31 °F 66 °F (1932)
Min Temperature 19 °F 15 °F -15 °F (1969)
Degree Days  
Heating Degree Days 40    
Moisture  
Dew Point 22 °F    
Average Humidity 87    
Maximum Humidity 100    
Minimum Humidity 75    
Precipitation  
Precipitation 0.04 in - - ()
Sea Level Pressure  
Sea Level Pressure 30.10 in    
Wind  
Wind Speed 5 mph (North)    
Max Wind Speed 15 mph    
Max Gust Speed 21 mph    
Visibility 8 miles    
Events Snow    
Averages and records for this station are not official NWS values.
T = Trace of Precipitation, MM = Missing Value Source: NWS Daily Summary

Daily Weather History Graph

Daily Weather History Graph

Search for Another Location

Airport or City:

Trip Planner

Search our weather history database for the weather conditions in past years. The results will help you decide how hot, cold, wet, or windy it might be!

Date:

Astronomy

Dec. 25, 2012 Rise Set
Actual Time 7:34 AM EST 4:38 PM EST
Civil Twilight 7:02 AM EST 5:10 PM EST
Nautical Twilight 6:26 AM EST 5:46 PM EST
Astronomical Twilight 5:52 AM EST 6:20 PM EST
Moon 2:45 PM EST 5:03 AM EST
Length of Visible Light 10h 08m
Length of Day
9h 04m
Waxing Gibbous, 93% of the Moon is Illuminated
Dec 25
Waxing Gibbous
Dec 28
Full
Jan 4
Last Quarter
Jan 11
New
Jan 18
First Quarter

Hourly Weather History & Observations

Time (EST) Temp. Windchill Dew Point Humidity Pressure Visibility Wind Dir Wind Speed Gust Speed Precip Events Conditions
12:11 AM 26.6 °F 21.2 °F 24.8 °F 93% 29.87 in 1.5 mi ESE 4.6 mph - 0.01 in Snow Light Snow
12:19 AM 26.6 °F 22.6 °F 24.8 °F 93% 29.87 in 2.0 mi SE 3.5 mph - 0.01 in Snow Light Snow
12:27 AM 26.6 °F 22.6 °F 24.8 °F 93% 29.87 in 2.0 mi ESE 3.5 mph - 0.01 in Snow Light Snow
12:45 AM 28.4 °F 23.3 °F 24.8 °F 86% 29.87 in 5.0 mi SE 4.6 mph - 0.02 in Snow Light Snow
12:56 AM 27.1 °F 23.2 °F 25.2 °F 92% 29.91 in 3.0 mi SE 3.5 mph - 0.02 in Snow Light Snow
1:05 AM 26.6 °F 22.6 °F 24.8 °F 93% 29.87 in 2.5 mi SE 3.5 mph - 0.00 in Snow Light Snow
1:34 AM 26.6 °F - 26.6 °F 100% 29.88 in 3.0 mi Calm Calm - 0.00 in Snow Light Snow
1:56 AM 27.1 °F - 26.1 °F 96% 29.93 in 6.0 mi Calm Calm - 0.01 in Snow Light Snow
2:40 AM 26.6 °F - 24.8 °F 93% 29.91 in 10.0 mi Calm Calm - 0.01 in Snow Light Snow
2:56 AM 27.1 °F - 25.2 °F 92% 29.95 in 10.0 mi Calm Calm - 0.01 in   Overcast
3:38 AM 28.4 °F - 26.6 °F 93% 29.92 in 10.0 mi Calm Calm - 0.00 in   Overcast
3:56 AM 28.0 °F 24.2 °F 25.2 °F 89% 29.96 in 10.0 mi South 3.5 mph - 0.00 in   Overcast
4:56 AM 28.0 °F - 26.1 °F 92% 29.97 in 10.0 mi Calm Calm - N/A   Overcast
5:56 AM 28.0 °F - 26.1 °F 92% 30.00 in 10.0 mi Calm Calm - N/A   Overcast
6:56 AM 29.1 °F 25.4 °F 26.1 °F 88% 30.04 in 10.0 mi West 3.5 mph - N/A   Overcast
7:56 AM 28.0 °F 18.1 °F 26.1 °F 92% 30.08 in 7.0 mi NW 11.5 mph - N/A   Overcast
8:56 AM 27.1 °F 17.5 °F 25.2 °F 92% 30.13 in 7.0 mi NW 10.4 mph - N/A   Overcast
9:56 AM 27.1 °F 15.4 °F 25.2 °F 92% 30.17 in 7.0 mi NNW 15.0 mph - N/A   Overcast
10:56 AM 27.1 °F 17.5 °F 22.1 °F 81% 30.19 in 10.0 mi NNW 10.4 mph 18.4 mph N/A   Overcast
11:56 AM 26.1 °F 14.0 °F 21.0 °F 81% 30.17 in 10.0 mi NNW 15.0 mph 20.7 mph N/A   Overcast
12:56 PM 25.2 °F 13.9 °F 19.0 °F 78% 30.17 in 10.0 mi NNW 12.7 mph 19.6 mph N/A   Overcast
1:56 PM 25.2 °F 15.7 °F 20.1 °F 81% 30.22 in 10.0 mi NW 9.2 mph - N/A   Mostly Cloudy
2:56 PM 25.2 °F 17.3 °F 19.0 °F 78% 30.24 in 10.0 mi NW 6.9 mph - N/A   Mostly Cloudy
3:56 PM 25.2 °F 17.3 °F 18.1 °F 75% 30.25 in 10.0 mi North 6.9 mph - N/A   Overcast
4:56 PM 25.2 °F 14.4 °F 18.1 °F 75% 30.27 in 10.0 mi NNW 11.5 mph - N/A   Overcast
5:56 PM 24.1 °F 13.7 °F 18.1 °F 78% 30.31 in 10.0 mi North 10.4 mph - N/A   Overcast
6:56 PM 23.0 °F 18.4 °F 18.1 °F 82% 30.32 in 10.0 mi North 3.5 mph - N/A   Overcast
7:56 PM 23.0 °F 17.0 °F 17.1 °F 78% 30.34 in 10.0 mi North 4.6 mph - N/A   Overcast
8:56 PM 22.1 °F 13.7 °F 17.1 °F 81% 30.34 in 10.0 mi NNE 6.9 mph - N/A   Overcast
9:56 PM 22.1 °F 17.4 °F 17.1 °F 81% 30.34 in 10.0 mi NNE 3.5 mph - N/A   Overcast
10:56 PM 22.1 °F 15.9 °F 16.2 °F 78% 30.35 in 10.0 mi NE 4.6 mph - N/A   Overcast
11:56 PM 19.0 °F 12.3 °F 15.1 °F 85% 30.34 in 10.0 mi ENE 4.6 mph - N/A   Overcast